Weather in Novyy Mir

Russia / Khabarovsk Krai     50°27′22″N   136°57′50″E
temp.,
°C
wind,
m/s
gust,
m/s
humid.,
%
clouds,
%
prec.,
mm/h
press.,
hPa
HPBL,
m
2 march, tue
tue201:00−20ene129464 0.0 102523
04:00−21ese119882 0.0 102521
07:00−24sse129995 0.0 102623
10:00−22sse239293 0.1 1026289
13:00−17s238198 0.0 1025464
16:00−16s227998 0.0 1024502
19:00−20s239483 0.0 102623
22:00−22s119782 0.0 102820
3 march, wed
wed301:00−23s229718 0.0 102721
04:00−24s349826 0.0 102785
07:00−25sse359875 0.0 1027139
10:00−22s589287 0.0 1026362
13:00−15ssw81382100 0.0 1023613
16:00−13s81375100 0.0 1019702
19:00−15ssw6158298 0.0 1018503
22:00−14s6168899 0.0 1018590
4 march, thu
thu401:00−14ssw5148898 0.0 1016402
04:00−15s4119199 0.0 1015370
07:00−16sse3795100 0.0 1013194
10:00−12s2392100 0.1 1011219
13:00−8ssw1386100 0.1 1009389
16:00−5e0183100 0.1 1008380
19:00−7sse3696100 0.1 1009194
22:00−10nne0197100 0.3 101029
5 march, fri
fri501:00−14n41191100 0.1 1010325
04:00−16n71387100 0.2 1011397
07:00−17n81485100 0.1 1012513
10:00−18n81482100 0.1 1014593
13:00−15n71078100 0.0 1015727
16:00−14n5874100 0.0 1015639
19:00−17n3883100 0.0 1018242
22:00−18n3886100 0.0 1022277
6 march, sat
sat601:00−21n2390100 0.0 102343
04:00−23s229463 0.0 102630
07:00−23s489899 0.1 1028331
10:00−22s699299 0.1 1028481
13:00−19s61086100 0.0 1027583
16:00−18s6984100 0.0 1026575
19:00−21s359359 0.0 1027121
22:00−22sse129631 0.0 102920